MDT,Max TemperatureF,Mean TemperatureF,Min TemperatureF,Max Dew PointF,MeanDew PointF,Min DewpointF,Max Humidity, Mean Humidity, Min Humidity, Max Sea Level PressureIn, Mean Sea Level PressureIn, Min Sea Level PressureIn, Max VisibilityMiles, Mean VisibilityMiles, Min VisibilityMiles, Max Wind SpeedMPH, Mean Wind SpeedMPH, Max Gust SpeedMPH,PrecipitationIn, CloudCover, Events, WindDirDegrees
2013-5-1,64,52,39,35,11,-11,70,38,5,30.36,30.07,29.81,10,10,8,32,13,45,0.00,2,Rain,336
2013-5-2,61,49,36,16,8,3,33,22,10,30.57,30.45,30.34,10,10,10,23,8,26,0.00,0,,44
2013-5-3,71,52,32,11,3,-5,27,16,5,30.34,30.09,29.85,10,10,10,12,4,23,0.00,0,,66
2013-5-4,79,57,34,11,5,-2,27,16,5,29.84,29.75,29.65,10,10,10,18,5,22,0.00,0,,32
2013-5-5,79,68,56,24,12,4,22,14,6,29.78,29.71,29.65,10,10,10,24,10,31,0.00,1,,187
2013-5-6,68,59,49,49,36,23,77,49,20,30.01,29.85,29.74,10,10,6,25,10,30,0.02,5,Rain-Thunderstorm,95
2013-5-7,62,52,42,48,44,40,92,72,51,29.98,29.91,29.85,10,10,3,26,10,32,0.33,4,Rain-Thunderstorm,75
2013-5-8,60,53,45,47,42,36,89,65,40,30.06,29.97,29.90,10,9,2,22,7,25,0.23,5,Rain,324
2013-5-9,69,59,49,47,43,31,83,55,26,30.08,30.00,29.93,10,10,7,20,7,26,0.02,5,Rain,68
2013-5-10,76,60,43,43,37,28,92,56,19,30.14,30.06,30.00,10,10,10,20,5,22,T,0,Rain,11
2013-5-11,79,63,47,38,31,22,59,36,12,30.21,30.14,30.08,10,10,10,13,3,15,0.00,0,,114
2013-5-12,83,67,50,34,30,24,46,29,12,30.28,30.08,29.98,10,10,10,13,2,16,0.00,0,,280
2013-5-13,88,70,52,37,29,23,50,30,10,30.18,30.00,29.87,10,10,6,15,2,17,0.00,0,,190
2013-5-14,91,71,51,36,29,20,41,25,8,29.88,29.79,29.67,10,10,10,16,5,20,0.00,0,,298
2013-5-15,91,77,62,39,28,1,40,22,4,29.85,29.69,29.57,10,10,10,28,8,36,0.00,0,,173
2013-5-16,88,72,56,41,28,17,55,32,8,29.82,29.67,29.58,10,10,10,30,9,40,0.00,0,,192
2013-5-17,82,71,59,29,19,7,26,16,6,29.86,29.68,29.58,10,10,10,30,13,36,0.00,0,,222
2013-5-18,76,65,54,36,28,17,43,27,11,29.89,29.78,29.73,10,10,10,25,13,39,0.00,1,,278
2013-5-19,72,62,51,33,29,23,44,30,16,29.95,29.84,29.77,10,10,6,40,12,47,T,2,Rain-Thunderstorm,281
2013-5-20,72,59,46,34,31,29,53,38,22,30.01,29.92,29.84,10,10,10,21,7,25,0.00,2,,359
2013-5-21,77,62,47,37,31,25,56,36,15,29.96,29.85,29.69,10,10,10,17,3,22,0.00,1,,170
2013-5-22,87,70,52,27,20,12,32,20,7,29.78,29.59,29.46,10,10,10,31,13,45,0.00,0,,189
2013-5-23,88,73,57,21,14,10,21,13,5,29.63,29.56,29.50,10,10,10,33,16,43,0.00,0,,213
2013-5-24,84,70,56,15,8,3,14,10,5,29.96,29.77,29.63,10,10,10,25,10,35,0.00,0,,236
2013-5-25,87,71,54,14,9,1,16,10,4,29.82,29.75,29.68,10,10,10,25,10,33,0.00,0,,214
2013-5-26,87,71,54,15,9,1,20,13,5,29.89,29.73,29.65,10,10,10,28,11,36,0.00,0,,210
2013-5-27,85,71,57,19,15,10,17,12,7,29.78,29.68,29.57,10,10,10,21,7,24,0.00,0,,248
2013-5-28,83,67,51,50,28,15,83,47,10,29.72,29.54,29.42,10,10,9,44,12,53,0.01,2,Rain,250
2013-5-29,75,60,44,46,30,18,83,48,13,29.73,29.67,29.60,10,10,10,28,11,37,0.00,1,,280
2013-5-30,79,61,43,30,23,17,45,28,10,29.82,29.75,29.70,10,10,10,29,9,35,0.00,0,,302
2013-5-31,80,64,48,25,14,-5,30,17,4,29.98,29.89,29.79,10,10,10,29,13,35,0.00,0,,301